Regional Weather Roundup
Issued by NWS Memphis, TN

Home | Current Version | Previous Version | Text Only | Print | Product List | Glossary On
Versions: 1 2 3 4 5 6 7 8 9 10 11 12 13 14 15 16 17 18 19 20 21 22 23 24 25 26 27 28 29 30 31 32 33 34 35 36 37 38 39 40 41 42 43 44 45 46 47 48 49 50
000
ASUS44 KMEG 221010
RWRMEG
MEMPHIS CWA HOURLY WEATHER ROUNDUP
NATIONAL WEATHER SERVICE MEMPHIS TN
500 AM CDT WED OCT 22 2014

...WEST TENNESSEE...

CITY           SKY/WX    TMP DP  RH WIND       PRES   REMARKS
MEMPHIS INTL   CLEAR     54  46  74 NE6       30.16R
JACKSON        CLEAR     47  43  86 CALM      30.18R
LEXINGTON      CLEAR     43  41  93 CALM      30.16R
SAVANNAH       CLEAR     39  39 100 CALM      30.17R
DYERSBURG      CLEAR     46  36  66 CALM      30.21R
UNION CITY     CLEAR     43  41  93 NE3       30.19R
PARIS          CLEAR     41  37  87 NE3       30.20R


...EASTERN ARKANSAS...

CITY           SKY/WX    TMP DP  RH WIND       PRES   REMARKS
JONESBORO      CLEAR     51  46  83 NE8       30.18R
WEST MEMPHIS   CLEAR     49  47  93 NE6       30.16R
BATESVILLE     CLEAR     46  45  93 W5        30.20R
NEWPORT        CLEAR     48  46  93 N6        30.20R
WALNUT RIDGE   CLEAR     48  37  66 N6        30.20R
BLYTHEVILLE    CLEAR     47  44  90 NE7       30.19R
SEARCY         CLEAR     47  45  93 N6        30.18R
STUTTGART      CLEAR     48  45  87 N9        30.15R
PINE BLUFF     CLEAR     52  49  89 N3        30.13R
MONTICELLO     CLEAR     52  49  89 CALM      30.11R


...NORTH MISSISSIPPI...

CITY           SKY/WX    TMP DP  RH WIND       PRES   REMARKS
TUPELO         CLEAR     48  45  89 NE7       30.13R
OXFORD         CLEAR     48  45  87 NE5       30.15R
OLIVE BRANCH   CLEAR     46  46 100 NE5       30.16R
TUNICA         CLEAR     46  45  93 NE6       30.16R
CLARKSDALE     CLEAR     50  48  93 N7        30.14S
CORINTH        CLEAR     45  43  93 CALM      30.16R FOG
GRENADA          N/A    N/A N/A N/A MISG        N/A
GREENWOOD      CLEAR     53  47  79 E6        30.11R
COLUMBUS       CLEAR     48  47  97 N5        30.11R
STARKVILLE     FAIR      50  46  87 N3        30.11R
GOLDEN TRIANGL CLEAR     48  43  81 N6        30.11R


...SOUTHEAST MISSOURI...

CITY           SKY/WX    TMP DP  RH WIND       PRES   REMARKS
WEST PLAINS    CLEAR     46  42  86 E3        30.22R
POPLAR BLUFF   CLEAR     48  41  76 N6        30.21R
CAPE GIRARDEAU CLEAR     45  40  82 CALM      30.23R


...NORTHWEST ALABAMA...

CITY           SKY/WX    TMP DP  RH WIND       PRES   REMARKS
MUSCLE SHOALS  CLEAR     51  43  74 NE6       30.16R


...MIDDLE TENNESSEE...

CITY           SKY/WX    TMP DP  RH WIND       PRES   REMARKS
NASHVILLE      CLEAR     45  41  86 N6        30.18R
CLARKSVILLE    CLEAR     44  40  85 NE5       30.20R
COLUMBIA       CLEAR     41  41 100 CALM      30.15R


...WESTERN KENTUCKY...

CITY           SKY/WX    TMP DP  RH WIND       PRES   REMARKS
PADUCAH        CLEAR     43  41  93 E3        30.21R
FORT CAMPBELL  CLEAR     40  40 100 N8        30.20R WCI  34


...CENTRAL ARKANSAS...

CITY           SKY/WX    TMP DP  RH WIND       PRES   REMARKS
LITTLE ROCK    CLEAR     54  48  80 NE8       30.15R


SKY/WX REPORTED AS FAIR MEANS FEW OR NO CLOUDS BELOW
12 THOUSAND FEET.




USA.gov is the U.S. government's official web portal to all federal, state and local government web resources and services.